This is the latest recevied weather packets stored in our database for station/object KC1ELF. If no packets are shown the sender has not sent any weather packets the latest 10 day(s).
| Time | Temp. | Humidity | Pressure | Rain* | Wind** | Luminosity | Snow |
|---|---|---|---|---|---|---|---|
| 1777685496 | 7.78° C | 58% | 1010.7 hPa | 0 mm | - | - | - |
| 1777684896 | 8.33° C | 58% | 1010.8 hPa | 0 mm | - | - | - |
| 1777684295 | 8.89° C | 56% | 1010.7 hPa | 0 mm | - | - | - |
| 1777683696 | 8.89° C | 55% | 1010.6 hPa | 0 mm | - | - | - |
| 1777683096 | 9.44° C | 52% | 1010.4 hPa | 0 mm | - | - | - |
| 1777682495 | 10° C | 52% | 1010.2 hPa | 0 mm | - | - | - |
| 1777681896 | 10° C | 50% | 1010.2 hPa | 0 mm | - | - | - |
| 1777681296 | 10.56° C | 49% | 1010 hPa | 0 mm | - | - | - |
| 1777680697 | 11.11° C | 48% | 1009.9 hPa | 0 mm | - | - | - |
| 1777680096 | 12.22° C | 45% | 1009.7 hPa | 0 mm | - | - | - |
| 1777679496 | 12.78° C | 42% | 1009.7 hPa | 0 mm | - | - | - |
| 1777678895 | 13.33° C | 39% | 1009.3 hPa | 0 mm | - | - | - |
| 1777678296 | 13.89° C | 39% | 1009.3 hPa | 0 mm | - | - | - |
| 1777677695 | 13.89° C | 39% | 1009.1 hPa | 0 mm | - | - | - |
| 1777677096 | 14.44° C | 38% | 1009.1 hPa | 0 mm | - | - | - |
| 1777676496 | 14.44° C | 38% | 1009 hPa | 0 mm | - | - | - |
| 1777675898 | 15° C | 37% | 1009.1 hPa | 0 mm | - | - | - |
| 1777675296 | 15° C | 35% | 1009 hPa | 0 mm | - | - | - |
| 1777674696 | 15° C | 36% | 1008.7 hPa | 0 mm | - | - | - |
| 1777674097 | 15.56° C | 34% | 1008.7 hPa | 0 mm | - | - | - |
| 1777673495 | 15.56° C | 34% | 1008.5 hPa | 0 mm | - | - | - |
| 1777672896 | 16.11° C | 35% | 1008.6 hPa | 0 mm | - | - | - |
| 1777672297 | 16.11° C | 34% | 1008.3 hPa | 0 mm | - | - | - |
| 1777671696 | 16.11° C | 33% | 1008.4 hPa | 0 mm | - | - | - |
| 1777671096 | 16.11° C | 35% | 1008.2 hPa | 0 mm | - | - | - |
* Rain latest hour (hover to see other rain measurements)
** Current wind speed in m/s (hover to see current wind gust speed)